{"data":{"norad_id":59012,"intl_designator":"2024-036Q","name":"STARLINK-31465","alt_names":[],"object_type":"PAYLOAD","status":"ACTIVE","operator":null,"country":"US","launch_date":"2024-02-23","launch_site_code":"AFWTR","launch_vehicle":null,"mission":null,"orbit_class":"UNKNOWN","rcs_meters":null,"size_class":null,"mass_kg":null,"dimensions":null,"purposes":["comms"],"wikipedia_slug":null,"has_3d_model":false,"image_url":null,"decayed_at":null,"tle_current":{"epoch":"2026-05-25T04:55:58.034784Z","epoch_age_seconds":51161,"freshness":"FRESH","line1":"1 59012U 24036Q   26145.20553281 -.00002049  00000+0 -57129-4 0  9990","line2":"2 59012  53.1608  83.0363 0001204  97.9017 262.2121 15.30166728127033","mean_motion":15.30166728,"eccentricity":0.0001204,"inclination_deg":53.1608,"raan_deg":83.0363,"arg_perigee_deg":97.9017,"mean_anomaly_deg":262.2121,"bstar":-5.7129e-5,"rev_number":12703,"period_min":94.107391936443,"perigee_km":474.48925986371,"apogee_km":476.13957096454,"semimajor_km":6853.4514154141,"source":"CELESTRAK","updated_at":"2026-05-25T13:38:18.818829Z"}}}